Location: Ferchesar
(52.6477°N, 12.4298°E)
Time: 10:24:34
(UTC+01:00)

Vanguard 1 Rocket - Pass Details

Date: 14 December 2021
Orbit: 651 x 4225 km, 34.3° (Epoch: 26 January)

Event Time Altitude Azimuth Distance (km) Brightness Sun altitude
Exits shadow 02:47:22 26° 150° (SSE) 3,654 10.3 -47.4°
Drops below altitude 10° 02:56:03 10° 123° (ESE) 5,756 11.7 -46.3°
Sets 03:02:31 0° 115° (ESE) 7,378 12.4 -45.4°
